Regional Weather Roundup
Issued by NWS Cleveland, OH

Home | Current Version | Previous Version | Graphics & Text | Print | Product List | Glossary On
Versions: 1 2 3 4 5 6 7 8 9 10 11 12 13 14 15 16 17 18 19 20 21 22 23 24 25 26 27 28 29 30 31 32 33 34 35 36 37 38 39 40 41 42 43 44 45 46 47 48 49 50
704
ASUS41 KCLE 221610
RWRCLE
OHIO REGIONAL WEATHER ROUNDUP
NATIONAL WEATHER SERVICE WILMINGTON, OH
1200 PM EDT FRI MAY 22 2015

NOTE: "FAIR" INDICATES FEW OR NO CLOUDS BELOW 12,000 FEET WITH NO
SIGNIFICANT WEATHER AND/OR OBSTRUCTIONS TO VISIBILITY.

OHZ001>008-015>018-024>027-034-035-043-044-221700-
   NORTHWEST OHIO

CITY           SKY/WX    TMP DP  RH WIND       PRES   REMARKS
DEFIANCE       SUNNY     65  31  28 VRB3      30.19R
FINDLAY        SUNNY     66  30  26 N7        30.18R
TOLEDO EXPRESS SUNNY     62  26  25 N7G17     30.18R
TOLEDO EXEC    SUNNY     64  26  23 N9        30.19R
LIMA           SUNNY     63  45  51 NE7       30.19R
$$

OHZ009>014-019>023-028>033-038-089-221700-
   NORTHEAST OHIO

CITY           SKY/WX    TMP DP  RH WIND       PRES   REMARKS
CLE-HOPKINS    MOSUNNY   58  37  45 N12       30.19R
CLE-LAKEFRONT  SUNNY     56  39  53 W8        30.17R
CUY CO. ARPT   SUNNY     57  34  41 N14       30.18R
LORAIN-ELYRIA  SUNNY     59  28  30 N9G21     30.18R
ASHTABULA      SUNNY     54  31  41 NW12      30.15R
AKRON-CANTON   MOSUNNY   64  40  41 NW13G22   30.15R
WOOSTER        PTSUNNY   62  32  32 N13G22    30.17R
MANSFIELD      SUNNY     63  40  42 W9        30.17R
YOUNGSTOWN     MOSUNNY   59  40  49 NW12      30.13R
$$

OHZ042-051>053-060>062-070>072-077>081-221700-
  SOUTHWEST OHIO

CITY           SKY/WX    TMP DP  RH WIND       PRES   REMARKS
CINC-COVINGTON SUNNY     68  49  50 W10       30.23
CINC-LUNKEN    SUNNY     69  49  48 SW9       30.23S
HAMILTON       SUNNY     69  48  47 VRB6      30.22F
DAYTON         MOSUNNY   69  49  48 W9G21     30.20R
WRIGHT-PAT AFB SUNNY     67  49  52 S12       30.19S
DAYTON GENERAL SUNNY     65  48  54 W10       30.20S
WILMINGTON     SUNNY     66  46  48 W10       30.21S
$$

OHZ036-037-039>041-045>050-054>059-063>069-073>076-082>088-221700-
  CENTRAL AND SOUTHEAST OHIO

CITY           SKY/WX    TMP DP  RH WIND       PRES   REMARKS
COLUMBUS       MOSUNNY   65  47  52 W9        30.18S
OSU AIRPORT    MOSUNNY   66  45  46 VRB3      30.18S
BOLTON FIELD   MOSUNNY   66  48  52 SW12      30.19R
RICKENBACK AFB SUNNY     65  47  52 W9        30.18F
NEWARK         MOSUNNY   64  49  57 W12       30.18R
MARION         SUNNY     64  40  41 VRB7      30.19R
LANCASTER      SUNNY     66  46  48 W9        30.19S
ZANESVILLE     MOSUNNY   65  46  50 W9G16     30.18R
NEW PHILLY     SUNNY     65  45  48 W7        30.16R
$$



USA.gov is the U.S. government's official web portal to all federal, state and local government web resources and services.